Change the Weather History Date:

Sunday, June 10, 2012

  Actual Average Record
Temperature  
Mean Temperature 76 °F -  
Max Temperature 91 °F 79 °F 97 °F (1973)
Min Temperature 62 °F 55 °F 38 °F (1972)
Cooling Degree Days 12    
Growing Degree Days 26 (Base 50)    
Moisture  
Dew Point 60 °F    
Average Humidity 54    
Maximum Humidity 100    
Minimum Humidity 34    
Precipitation  
Precipitation 0.35 in - - ()
Sea Level Pressure  
Sea Level Pressure 29.68 in    
Wind  
Wind Speed 10 mph (South)    
Max Wind Speed 26 mph    
Max Gust Speed 41 mph    
Visibility 10 miles    
Events Rain , Thunderstorm    
Averages and records for this station are not official NWS values.
T = Trace of Precipitation, MM = Missing Value Source: NWS Daily Summary

Daily Weather History Graph

Daily Weather History Graph

Search for Another Location

Airport or City:

Trip Planner

Search our weather history database for the weather conditions in past years. The results will help you decide how hot, cold, wet, or windy it might be!

Date:

Astronomy

Jun. 10, 2012 Rise Set
Actual Time 5:27 AM CDT 8:57 PM CDT
Civil Twilight 4:50 AM CDT 9:34 PM CDT
Nautical Twilight 4:02 AM CDT 10:23 PM CDT
Astronomical Twilight 3:00 AM CDT 11:25 PM CDT
Moon 12:37 AM CDT (6/10) 12:31 PM CDT (6/10)
Length of Visible Light 16h 43m
Length of Day
15h 30m
Waning Gibbous, 58% of the Moon is Illuminated
Jun 10
Waning Gibbous
Jun 11
Last Quarter
Jun 19
New
Jun 26
First Quarter
Jul 3
Full

Hourly Weather History & Observations

Time (CDT) Temp. Heat Index Dew Point Humidity Pressure Visibility Wind Dir Wind Speed Gust Speed Precip Events Conditions
12:12 AM 73.4 °F - 53.6 °F 50% 29.71 in 10.0 mi SSE 4.6 mph - N/A   Clear
12:32 AM 71.6 °F - 53.6 °F 53% 29.71 in 7.0 mi SSE 4.6 mph - N/A   Clear
12:53 AM 71.6 °F - 53.6 °F 53% 29.71 in 10.0 mi SSE 5.8 mph - N/A   Clear
1:12 AM 69.8 °F - 53.6 °F 56% 29.70 in 7.0 mi SSE 4.6 mph - N/A   Clear
1:32 AM 69.8 °F - 53.6 °F 56% 29.70 in 10.0 mi SSE 4.6 mph - N/A   Clear
1:52 AM 69.8 °F - 55.4 °F 60% 29.69 in 10.0 mi SSE 5.8 mph - N/A   Clear
2:12 AM 71.6 °F - 55.4 °F 57% 29.68 in 10.0 mi SSE 6.9 mph - N/A   Clear
2:33 AM 71.6 °F - 55.4 °F 57% 29.67 in 10.0 mi SSE 8.1 mph - N/A   Clear
2:52 AM 71.6 °F - 55.4 °F 57% 29.67 in 10.0 mi South 8.1 mph - N/A   Clear
3:12 AM 71.6 °F - 55.4 °F 57% 29.67 in 10.0 mi South 9.2 mph - N/A   Clear
3:33 AM 71.6 °F - 55.4 °F 57% 29.68 in 10.0 mi South 9.2 mph 16.1 mph N/A   Clear
3:52 AM 71.6 °F - 57.2 °F 60% 29.68 in 10.0 mi South 9.2 mph - N/A   Clear
4:12 AM 71.6 °F - 57.2 °F 60% 29.68 in 10.0 mi South 8.1 mph - N/A   Clear
4:33 AM 71.6 °F - 57.2 °F 60% 29.69 in 10.0 mi South 5.8 mph - N/A   Clear
4:52 AM 71.6 °F - 57.2 °F 60% 29.70 in 10.0 mi South 6.9 mph - N/A   Clear
5:12 AM 71.6 °F - 57.2 °F 60% 29.70 in 10.0 mi South 6.9 mph - N/A   Clear
5:33 AM 71.6 °F - 57.2 °F 60% 29.70 in 10.0 mi SSE 6.9 mph - N/A   Clear
5:52 AM 71.6 °F - 57.2 °F 60% 29.71 in 10.0 mi SSE 5.8 mph - N/A   Clear
6:12 AM 69.8 °F - 57.2 °F 64% 29.71 in 10.0 mi SSE 3.5 mph - N/A   Clear
6:33 AM 71.6 °F - 57.2 °F 60% 29.72 in 10.0 mi South 5.8 mph - N/A   Clear
6:52 AM 71.6 °F - 57.2 °F 60% 29.72 in 10.0 mi SSE 5.8 mph - N/A   Clear
7:12 AM 73.4 °F - 59.0 °F 61% 29.71 in 10.0 mi South 8.1 mph - N/A   Clear
7:32 AM 75.2 °F - 59.0 °F 57% 29.71 in 10.0 mi SSE 9.2 mph - N/A   Clear
7:52 AM 75.2 °F - 60.8 °F 61% 29.73 in 10.0 mi South 10.4 mph - N/A   Clear
8:13 AM 77.0 °F - 60.8 °F 57% 29.73 in 10.0 mi SSE 8.1 mph - N/A   Clear
8:32 AM 78.8 °F - 60.8 °F 54% 29.73 in 10.0 mi South 10.4 mph - N/A   Clear
8:52 AM 80.6 °F 81.8 °F 62.6 °F 54% 29.73 in 10.0 mi South 10.4 mph - N/A   Clear
9:13 AM 80.6 °F 81.8 °F 62.6 °F 54% 29.72 in 10.0 mi South 11.5 mph 18.4 mph N/A   Clear
9:32 AM 80.6 °F 81.8 °F 62.6 °F 54% 29.72 in 10.0 mi South 12.7 mph 21.9 mph N/A   Clear
9:52 AM 82.4 °F 83.4 °F 62.6 °F 51% 29.71 in 10.0 mi South 15.0 mph - N/A   Clear
10:12 AM 82.4 °F 83.4 °F 62.6 °F 51% 29.71 in 10.0 mi South 11.5 mph 18.4 mph N/A   Clear
10:32 AM 82.4 °F 83.4 °F 62.6 °F 51% 29.71 in 10.0 mi South 13.8 mph 24.2 mph N/A   Scattered Clouds
10:52 AM 84.2 °F 85.0 °F 62.6 °F 48% 29.71 in 10.0 mi South 15.0 mph 21.9 mph N/A   Clear
11:12 AM 84.2 °F 85.0 °F 62.6 °F 48% 29.70 in 10.0 mi South 13.8 mph 24.2 mph N/A   Clear
11:32 AM 86.0 °F 86.6 °F 62.6 °F 45% 29.70 in 10.0 mi South 15.0 mph 24.2 mph N/A   Clear
11:52 AM 86.0 °F 86.6 °F 62.6 °F 45% 29.70 in 5.0 mi South 19.6 mph 27.6 mph N/A   Haze
12:12 PM 87.8 °F 88.5 °F 62.6 °F 43% 29.69 in 10.0 mi South 21.9 mph 29.9 mph N/A   Scattered Clouds
12:32 PM 86.0 °F 86.6 °F 62.6 °F 45% 29.68 in 10.0 mi South 23.0 mph 31.1 mph N/A   Scattered Clouds
12:53 PM 87.8 °F 88.5 °F 62.6 °F 43% 29.67 in 10.0 mi South 23.0 mph 34.5 mph N/A   Scattered Clouds
1:12 PM 87.8 °F 88.5 °F 62.6 °F 43% 29.66 in 10.0 mi South 17.3 mph 33.4 mph N/A   Scattered Clouds
1:32 PM 89.6 °F 89.5 °F 60.8 °F 38% 29.66 in 10.0 mi South 17.3 mph 27.6 mph N/A   Scattered Clouds
1:53 PM 89.6 °F 89.5 °F 60.8 °F 38% 29.64 in 10.0 mi South 24.2 mph 33.4 mph N/A   Clear
2:12 PM 89.6 °F 89.5 °F 60.8 °F 38% 29.64 in 10.0 mi South 20.7 mph 29.9 mph N/A   Clear
2:32 PM 89.6 °F 89.5 °F 60.8 °F 38% 29.64 in 10.0 mi South 18.4 mph 33.4 mph N/A   Clear
2:52 PM 91.4 °F 91.4 °F 60.8 °F 36% 29.65 in 10.0 mi South 12.7 mph 31.1 mph N/A   Clear
3:12 PM 91.4 °F 91.4 °F 60.8 °F 36% 29.64 in 10.0 mi South 18.4 mph 28.8 mph N/A   Clear
3:33 PM 91.4 °F 91.4 °F 60.8 °F 36% 29.65 in 10.0 mi South 21.9 mph 27.6 mph N/A   Clear
3:52 PM 89.6 °F 88.9 °F 59.0 °F 36% 29.66 in 10.0 mi South 16.1 mph 25.3 mph N/A   Scattered Clouds
4:12 PM 89.6 °F 88.9 °F 59.0 °F 36% 29.65 in 10.0 mi South 16.1 mph 27.6 mph N/A   Mostly Cloudy
4:33 PM 89.6 °F 88.9 °F 59.0 °F 36% 29.65 in 10.0 mi South 15.0 mph 28.8 mph N/A   Scattered Clouds
4:52 PM 91.4 °F 90.7 °F 59.0 °F 34% 29.64 in 10.0 mi South 21.9 mph 31.1 mph N/A   Scattered Clouds
5:12 PM 89.6 °F 88.9 °F 59.0 °F 36% 29.64 in 10.0 mi South 16.1 mph 33.4 mph N/A   Scattered Clouds
5:33 PM 89.6 °F 88.9 °F 59.0 °F 36% 29.62 in 10.0 mi South 20.7 mph 28.8 mph N/A   Clear
5:52 PM 89.6 °F 88.9 °F 59.0 °F 36% 29.61 in 10.0 mi South 19.6 mph 32.2 mph N/A   Clear
6:12 PM 87.8 °F 87.1 °F 59.0 °F 38% 29.61 in 10.0 mi South 15.0 mph 28.8 mph N/A   Scattered Clouds
6:33 PM 87.8 °F 87.1 °F 59.0 °F 38% 29.61 in 10.0 mi South 18.4 mph 28.8 mph N/A   Scattered Clouds
6:52 PM 87.8 °F 87.1 °F 59.0 °F 38% 29.62 in 10.0 mi South 12.7 mph 27.6 mph N/A   Scattered Clouds
7:12 PM 86.0 °F 84.9 °F 57.2 °F 37% 29.60 in 10.0 mi South 21.9 mph 33.4 mph N/A   Scattered Clouds
7:32 PM 84.2 °F 83.8 °F 59.0 °F 42% 29.59 in 10.0 mi South 19.6 mph 26.5 mph N/A   Scattered Clouds
7:52 PM 84.2 °F 83.8 °F 59.0 °F 42% 29.61 in 10.0 mi South 16.1 mph 28.8 mph N/A   Scattered Clouds
8:12 PM 84.2 °F 84.4 °F 60.8 °F 45% 29.58 in 10.0 mi South 16.1 mph 27.6 mph N/A   Scattered Clouds
8:32 PM 84.2 °F 84.4 °F 60.8 °F 45% 29.60 in 10.0 mi South 12.7 mph 25.3 mph N/A   Mostly Cloudy
8:52 PM 80.6 °F 81.8 °F 62.6 °F 54% 29.67 in 10.0 mi WSW 26.5 mph 41.4 mph N/A Thunderstorm Mostly Cloudy
9:12 PM 68.0 °F - 64.4 °F 88% 29.66 in 7.0 mi West 15.0 mph 20.7 mph 0.09 in Rain , Thunderstorm Heavy Thunderstorms and Rain
9:32 PM 66.2 °F - 64.4 °F 94% 29.69 in 10.0 mi West 15.0 mph 18.4 mph 0.10 in Rain , Thunderstorm Light Thunderstorms and Rain
9:52 PM 66.2 °F - 64.4 °F 94% 29.73 in 10.0 mi West 18.4 mph 24.2 mph 0.25 in Rain , Thunderstorm Thunderstorms and Rain
10:12 PM 64.4 °F - 64.4 °F 100% 29.75 in 10.0 mi West 13.8 mph 17.3 mph 0.02 in Thunderstorm Mostly Cloudy
10:32 PM 64.4 °F - 62.6 °F 94% 29.75 in 10.0 mi WNW 21.9 mph 27.6 mph 0.03 in Rain Light Rain
10:52 PM 62.6 °F - 62.6 °F 100% 29.76 in 10.0 mi WNW 9.2 mph - 0.04 in Rain , Thunderstorm Light Thunderstorms and Rain
11:32 PM 62.6 °F - 60.8 °F 94% 29.76 in 10.0 mi NW 9.2 mph - 0.06 in Rain , Thunderstorm Light Thunderstorms and Rain
11:52 PM 62.6 °F - 60.8 °F 94% 29.75 in 10.0 mi WNW 5.8 mph - 0.06 in   Scattered Clouds